Regional Weather Roundup
Issued by NWS

Home | Current Version | Previous Version | Text Only | Print | Product List | Glossary Off
Versions: 1 2 3 4 5 6 7 8 9 10 11 12 13 14 15 16 17 18 19 20 21 22 23 24 25 26 27 28 29 30 31 32 33 34 35 36 37 38 39 40 41 42 43 44 45 46 47 48 49 50

000
ASUS43 KLOT 150803
RWRIL

ILLINOIS REGIONAL WEATHER ROUNDUP
NATIONAL WEATHER SERVICE CHICAGO/ROMEOVILLE IL
200 AM CST FRI DEC 15 2017

NOTE: "FAIR" INDICATES FEW OR NO CLOUDS BELOW 12,000 FEET WITH NO
SIGNIFICANT WEATHER AND/OR OBSTRUCTIONS TO VISIBILITY.

* THESE STATIONS ARE NOT UNDER NWS QUALITY CONTROL. THEY ALSO MAY NOT
  REPORT WEATHER SUCH AS PRECIPITATION OR FOG.

ILZ001-002-007-009-015-016-024-150900-
NORTHWEST ILLINOIS

CITY           SKY/WX    TMP DP  RH WIND       PRES   REMARKS
MOLINE         CLOUDY    27  19  72 W9        30.01S WCI  18
STERLING*        N/A    N/A N/A N/A MISG        N/A
SAVANNA*       CLOUDY    27  19  72 W10       29.98S WCI  17
$$

ILZ003-004-008-010-011-017-018-150900-
NORTH CENTRAL ILLINOIS

CITY           SKY/WX    TMP DP  RH WIND       PRES   REMARKS
ROCKFORD       FLURRIES  24  17  74 SW8       29.97F WCI  15
FREEPORT*      CLOUDY    24  18  78 W10       29.96F WCI  13
ROCHELLE*      CLOUDY    24  18  78 SW12      29.97F WCI  13
DE KALB*       CLOUDY    24  17  77 SW10      29.96F WCI  13
PERU*          CLOUDY    24  17  75 W8        30.01F WCI  14
$$

ILZ005-006-012>014-019>023-150900-
NORTHEAST ILLINOIS

CITY           SKY/WX    TMP DP  RH WIND       PRES   REMARKS
CHICAGO-OHARE  CLOUDY    23  14  68 SW7       29.96F WCI  15
CHICAGO-MIDWAY CLOUDY    23  13  65 SW8       29.98F WCI  14
AURORA         CLOUDY    22  16  78 SW9       29.98F WCI  12
LANSING*       CLOUDY    20  15  81 SW5       30.01S WCI  14
JOLIET*        CLOUDY    23  16  73 SW5       30.01F WCI  17
WAUKEGAN       CLOUDY    22  15  75 SW8       29.93F WCI  12
DUPAGE AIRPORT CLOUDY    21  15  78 SW7       29.96F WCI  12
KANKAKEE*      CLOUDY    19  12  73 SW5       30.03S WCI  12
WHEELING       CLOUDY    24  16  71 SW8       29.97F WCI  15
MORRIS*        CLOUDY    21  15  75 SW5       29.99F WCI  15
ROMEOVILLE*    CLOUDY    21  15  77 SW7       29.99F WCI  13
NORTHERLY ISL    N/A     24  13  62 S5          N/A  WCI  18
$$

LMZ740>746-150900-
SOUTHERN LAKE MICHIGAN

STATION/POSITION SKY/WX   TEMP    WIND        PRES    VSBY  WAVE
                          AIR SEA DIR/SP/G                  HT/PER
                          (F)     (DEG/KT/KT) (MB)    (MI)  (FT/S)
HARRISON CRIB              25     240/ 10/ 12   N/A
BURNHAM HARBOR             24     200/  3/  9   N/A
CALUMET HARBOR             22     220/  3/  6 1015.2F
BURNS HARBOR               22     210/  8/ 11 1016.6S
MICHIGAN CITY              22     200/ 12/ 14   N/A
$$

ILZ025>027-034>036-040-047-049-050-058-095>099-150900-
WEST-CENTRAL ILLINOIS

CITY           SKY/WX    TMP DP  RH WIND       PRES   REMARKS
QUINCY         PTCLDY    24  19  81 SW8       30.06F WCI  15
GALESBURG*     CLOUDY    26  21  80 SW6       30.03S WCI  20
MACOMB*        CLOUDY    26  19  76 SW7       30.06F WCI  18
JACKSONVILLE*  CLOUDY    27  18  69 SW7       30.07F WCI  20
PITTSFIELD*    CLOUDY    29  21  71 SW5       30.08F WCI  24
$$

ILZ028>032-037-038-041>044-048-051>054-059>061-150900-
CENTRAL ILLINOIS

CITY           SKY/WX    TMP DP  RH WIND       PRES   REMARKS
PONTIAC        CLOUDY    23  15  72 S8        30.03F WCI  14
BLOOMINGTON    CLOUDY    22  17  81 SW8       30.03  WCI  12
DECATUR        PTCLDY    24  17  74 W5        30.06S WCI  18
PEORIA         CLOUDY    25  17  72 W5        30.04F WCI  19
LACON*         CLOUDY    26  18  71 SW6       30.02F WCI  19
LINCOLN*       CLOUDY    28  20  72 W3        30.06S
SPRINGFIELD    CLOUDY    27  19  72 W7        30.07S WCI  19
TAYLORVILLE    CLOUDY    24  17  73 W7        30.07S WCI  16
$$

ILZ033-039-045-046-055>057-062-063-150900-
EAST-CENTRAL ILLINOIS

CITY           SKY/WX    TMP DP  RH WIND       PRES   REMARKS
CHAMPAIGN      PTCLDY    18  14  84 SW5       30.04S WCI  11
DANVILLE*      PTCLDY    20  15  81 CALM      30.01S
RANTOUL*       CLOUDY    22  17  80 SW5       30.03S WCI  16
MATTOON        CLOUDY    25  18  74 SW3       30.05S
PARIS*         CLOUDY    22  18  81 W6        30.06S WCI  15
$$

ILZ079-100>102-150900-
SOUTHWEST ILLINOIS

CITY           SKY/WX    TMP DP  RH WIND       PRES   REMARKS
ALTON          CLOUDY    28  21  74 W5        30.10S WCI  23
BELLEVILLE     CLOUDY    30  19  63 W6        30.11R WCI  24
CAHOKIA*       CLOUDY    30  19  63 SW3       30.12R
SPARTA*        CLOUDY    30  23  74 W5        30.12S WCI  25
$$

ILZ064>066-069>071-074>076-080>082-084>086-088>090-092>094-150900-
SOUTH-CENTRAL ILLINOIS

CITY           SKY/WX    TMP DP  RH WIND       PRES   REMARKS
CARBONDALE     CLOUDY    30  22  72 SW5       30.12S WCI  25
CAIRO*         CLOUDY    32  24  72 CALM      30.13S
EFFINGHAM*     CLOUDY    28  21  74 SW5       30.10S WCI  23
MARION         CLOUDY    32  22  67 CALM      30.12S
MT. VERNON     CLOUDY    30  20  66 VRB5      30.11R WCI  25
CENTRALIA*     CLOUDY    31  22  69 NW6       30.09S WCI  25
SALEM*         CLOUDY    31  19  62 W6        30.10R WCI  25
METROPOLIS*    CLOUDY    32  22  67 NW3       30.13S
$$

ILZ067-068-072-073-078-083-087-091-150900-
SOUTHEAST ILLINOIS

CITY           SKY/WX    TMP DP  RH WIND       PRES   REMARKS
LAWRENCEVILLE  CLOUDY    30  21  69 W6        30.09R WCI  24
FLORA*         CLOUDY    30  21  69 W3        30.10R
FAIRFIELD*     CLOUDY    30  20  67 CALM      30.09S
HARRISBURG*    CLOUDY    31  21  66 NW8       30.12R WCI  23
ROBINSON*      CLOUDY    28  22  77 W6        30.09R WCI  22
CARMI*         CLOUDY    31  23  73 W5        30.10R WCI  26
$$

ABBREVIATIONS USED IN REMARKS
   TC - TEMPERATURE IN CELSIUS
  WCI - WIND CHILL INDEX
   HX - HEAT INDEX
  VSB - VISIBILITY
$$





USA.gov is the U.S. government's official web portal to all federal, state and local government web resources and services.